Weather in Nushtaykino

Russia / Orenburg Oblast     53°36′28″N   52°13′42″E
temp.,
°C
wind,
m/s
gust,
m/s
humid.,
%
clouds,
%
prec.,
mm/h
press.,
hPa
HPBL,
m
28 february, sun
sun2823:000wsw3699100 4.0 998250
02:00−3nw4697100 1.0 998166
05:00−11nw469598 1.2 999157
08:00−14nw469692 0.0 1000117
11:00−10nw579497 0.1 1002261
14:00−9nnw5793100 0.1 1005412
17:00−9nnw5792100 0.2 1007502
20:00−12nnw379598 0.1 1010185
1 march, mon
mon123:00−14nnw359596 0.2 101293
02:00−16nnw239593 0.0 101479
05:00−19nw239660 0.0 101621
08:00−20nw23973 0.0 101721
11:00−18nw34932 0.0 1020197
14:00−15nw349247 0.0 1021330
17:00−15wnw469273 0.0 1021391
20:00−20wnw239880 0.0 102221
2 march, tue
tue223:00−22w2210040 0.0 102220
02:00−22sw3310052 0.0 102129
05:00−21ssw3410060 0.0 101872
08:00−16ssw51196100 0.0 1015289
11:00−12ssw71394100 0.4 1012436
14:00−8sw81394100 0.9 1008603
17:00−5sw81495100 1.8 1006676
20:00−3sw61396100 1.0 1003611
3 march, wed
wed323:00−1sw51097100 1.7 1002369
02:00−1wnw489699 1.3 1001389
05:00−6w359892 1.3 1002100
08:00−6w349798 0.1 1002161
11:00−6w349695 0.1 1004237
14:00−4w469494 0.1 1004353
17:00−3wnw579294 0.2 1005534
20:00−5nw4894100 0.1 1006452
4 march, thu
thu423:00−6wnw3893100 0.1 1008347
02:00−12wnw349532 0.0 100832
05:00−13w349852 0.0 100953
08:00−13wsw469798 0.1 1010106
11:00−10wsw589698 0.1 1010261
14:00−7sw6119187 0.0 1008383
17:00−5sw7149192 0.0 1007741
20:00−4sw81692100 0.3 1004927